Location: Newark
(30.0333°N, 31.2167°E)
Time: 06:20:58
(UTC+00:00)

Tiros 1 - Pass Details

Date: 26 January 2020
Orbit: 630 x 664 km, 48.4° (Epoch: 27 February)

Event Time Altitude Azimuth Distance (km) Brightness Sun altitude
Rises 11:25:57 0° 285° (WNW) 2,934 10.6 37.7°
Reaches altitude 10° 11:29:39 10° 315° (NW) 2,035 9.6 37.3°
Maximum altitude 11:31:40 13° 341° (NNW) 1,875 9.3 37.2°
Drops below altitude 10° 11:33:41 10° 6° (N) 2,046 9.4 37.0°
Sets 11:37:26 0° 36° (NE) 2,967 10.1 36.6°
